Weather Roundup
Issued by NWS

Home | Current Version | Previous Version | Graphics & Text | Print | Product List | Glossary Off
Versions: 1 2 3 4 5 6 7 8 9 10 11 12 13 14 15 16 17 18 19 20 21 22 23 24 25 26 27 28 29 30 31 32 33 34 35 36 37 38 39 40 41 42 43 44 45 46 47 48 49 50

000
NZUS93 KARX 291810
HRRWXR

CURRENT HOURLY OBSERVATIONS ACROSS
MUCH OF THE UPPER MISSISSIPPI VALLEY
NATIONAL WEATHER SERVICE LA CROSSE WI
100 PM CDT FRI AUG 29 2014


...SOUTHEAST MINNESOTA...


CITY           SKY/WX    TMP DP  RH WIND       PRES   REMARKS
ROCHESTER      MOSUNNY   81  69  67 S15G23    29.83F
ROCHESTER/MAYO FAIR      82  67  60 S12G18    29.81F
WINONA         MOSUNNY   81  70  69 S6        29.81F
AUSTIN         MOSUNNY   81  72  74 SW12      29.82S
ALBERT LEA     PTSUNNY   81  70  69 S9        29.81S
DODGE CENTER   MOSUNNY   82  70  65 S13       29.82S
PRESTON        SUNNY     79  73  80 S3        29.84F
OWATONNA       PTSUNNY   81  68  65 SW12G17   29.81S
FARIBAULT      PTSUNNY   81  66  61 S7        29.80F
$$

...ELSEWHERE IN MINNESOTA...


CITY           SKY/WX    TMP DP  RH WIND       PRES   REMARKS
MINNEAPOLIS    CLOUDY    76  68  76 SW7       29.79S
INTNL FALLS    CLOUDY    67  61  81 S6        29.78F
DULUTH         LGT RAIN  64  61  90 N3        29.79S
RED WING       MOSUNNY   82  70  65 W3        29.78F
REDWOOD FALLS  RAIN      74  71  91 W10       29.76F FOG
MANKATO        PTSUNNY   79  66  65 SW8       29.79S
WORTHINGTON    CLOUDY    72  70  94 SW10      29.83S
FAIRMONT       CLOUDY    70  66  88 SW8       29.81S
$$

...SOUTHWEST WISCONSIN...


CITY           SKY/WX    TMP DP  RH WIND       PRES   REMARKS
LA CROSSE      SUNNY     82  70  66 S13       29.82F
PRAIRIE DU CHI MOSUNNY   83  69  61 S13       29.84F
BOSCOBEL       SUNNY     86  70  58 S9        29.85F HX  90
LONE ROCK      SUNNY     87  72  60 S12       29.86F HX  93
PLATTEVILLE    SUNNY     82  72  72 S13       29.89F
FORT MC COY    MOSUNNY   79  67  66 SE9       29.85F
CAMP DOUGLAS   PTSUNNY   79  73  83 S7        29.87F
VIROQUA        MOCLDY    79  73  81 S9        29.87F
WIS DELLS      SUNNY     83  67  59 S13G18    29.87F
$$

...ELSEWHERE IN WISCONSIN...


CITY           SKY/WX    TMP DP  RH WIND       PRES   REMARKS
MILWAUKEE      PTSUNNY   77  72  84 S9        29.94F
MADISON        MOSUNNY   83  70  64 S17       29.89F
GREEN BAY      PTSUNNY   80  71  74 SW8G18    29.88F
EAU CLAIRE     PTSUNNY   76  69  79 S9        29.81F
BLACK RVR FLS  MOCLDY    80  68  68 SE7       29.83F
MEDFORD        CLOUDY    67  66  97 S8        29.88F FOG
WAUSAU         CLOUDY    67  65  93 SE6       29.87F FOG
WIS RAPIDS     CLOUDY    75  68  78 S9        29.89F
MARSHFIELD     CLOUDY    73  67  81 S9        29.87F
RICE LAKE      CLOUDY    70  66  86 SE7       29.83F
$$

...NORTHEAST IOWA...


CITY           SKY/WX    TMP DP  RH WIND       PRES   REMARKS
WATERLOO       SUNNY     86  69  56 S15       29.81F HX  90
DUBUQUE        MOSUNNY   81  72  74 S14       29.89F
DECORAH        MOSUNNY   81  72  74 SW8G16    29.84F
MASON CITY     CLOUDY    81  70  69 SW15      29.83F
CHARLES CITY   MOSUNNY   82  72  69 S13       29.83F
OELWEIN        SUNNY     84  73  70 S13G22    29.85S HX  91
$$

...ELSEWHERE IN IOWA...


CITY           SKY/WX    TMP DP  RH WIND       PRES   REMARKS
DES MOINES     PTSUNNY   84  71  65 SW12      29.81F
IOWA CITY      SUNNY     85  73  67 S10       29.87F HX  91
FORT DODGE     CLOUDY    79  70  73 S9        29.83S
MARSHALLTOWN   MOSUNNY   84  71  65 S13       29.81F
CEDAR RAPIDS   SUNNY     85  74  69 S10       29.85F HX  92
$$

...NORTHERN ILLINOIS...


CITY           SKY/WX    TMP DP  RH WIND       PRES   REMARKS
CHICAGO-OHARE  PTSUNNY   84  69  60 SW12      29.95F
DUPAGE         PTSUNNY   83  72  69 S13       29.95F
CHICAGO-MIDWAY PTSUNNY   84  73  69 SW14      29.95F HX  90
MOLINE         SUNNY     84  72  67 S12       29.88F
ROCKFORD       LGT RAIN  77  70  79 S12       29.95S
STERLING       MOSUNNY   79  72  78 S6        29.92F
PEORIA         MOSUNNY   84  72  67 S10       29.93F
$$

NOTE: "FAIR" INDICATES FEW OR NO CLOUDS BELOW 12,000 FEET WITH NO
SIGNIFICANT WEATHER AND/OR OBSTRUCTIONS TO VISIBILITY. WIND
SPEEDS ARE IN MILES-PER-HOUR.



USA.gov is the U.S. government's official web portal to all federal, state and local government web resources and services.